sat.trackr.live / text

‹ back to catalog

STARLINK-32361

NORAD 61933 · 2024-207X

PAYLOAD ACTIVE UNKNOWN

§ Identity

Operator
Country
US
Launch date
2024-11-11
Launch site
AFETR
Launch vehicle
Mass (kg)
RCS (m²)

Purposes: comms

External: N2YO · Heavens-Above · Gunter

§ Orbital elements

Epoch: 2026-05-25T05:28:17.611104Z

Period
94.27 min
Inclination
43.0021°
Eccentricity
0.0001140
Mean motion
15.27594822 rev/d
Perigee alt
482.2 km
Apogee alt
483.8 km
Semi-major
6,861.1 km
B*
6.5512e-4
RAAN
209.8186°
Arg perigee
278.6257°
Mean anomaly
81.4466°
Rev number
8,642

§ Raw data

STARLINK-323611 61933U 24207X   26145.22798161  .00017817  00000+0  65512-3 0  99962 61933  43.0021 209.8186 0001140 278.6257  81.4466 15.27594822 86425

JSON: /api/v1/satellites/61933 · /tle

For live sub-satellite position, see the globe view (requires WebGL).

§ Visibility from observer

Set your observer location to see the next 7 days of passes ≥ 10°. The values pass through the URL so the page stays shareable.

No JS? Fill the form by hand. The geolocation button needs JavaScript.